Regional Weather Roundup
Issued by NWS Midland/Odessa, TX

Home | Current Version | Previous Version | Text Only | Print | Product List | Glossary On
Versions: 1 2 3 4 5 6 7 8 9 10 11 12 13 14 15 16 17 18 19 20 21 22 23 24 25 26 27 28 29 30 31 32 33 34 35 36 37 38 39 40 41 42 43 44 45 46 47 48 49 50
000
ASUS44 KMAF 200210
RWRMAF
MIDLAND AREA WEATHER ROUNDUP
NATIONAL WEATHER SERVICE MIDLAND TX
900 PM CDT THU APR 19 2018

...IN SOUTHWEST TEXAS AND SOUTHEAST NEW MEXICO...

CITY           SKY/WX    TMP DP  RH WIND       PRES   REMARKS
ALPINE         CLEAR     59  41  50 SE13G18   30.19S
ANDREWS        CLOUDY    66  22  18 SE16G23   30.14S
ARTESIA        PTCLDY    70  28  21 SE20G28   30.08S
BIG SPRING     CLEAR     66  23  19 E13G18    30.19S
CARLSBAD       CLEAR     69  32  25 SE18      30.08S
DRYDEN           N/A     66  37  34 SE14G23   30.15R
FORT STOCKTON  PTCLDY    65  36  34 SE14G24   30.12S
GUAD PASS      PTCLDY    61  32  33 E43       30.10S
HOBBS          MOCLDY    66  19  16 SE15      30.13S
LAMESA         FAIR      64  21  19 SE20      30.17F
MARFA          CLEAR     60  42  51 E10       30.15
MIDLAND AIRPK    N/A     70  20  15 E13G23    30.15S
MIDLAND INTL   CLEAR     69  22  16 E18       30.13S
ODESSA         CLEAR     70  18  13 SE16G26   30.14S
PECOS          PTCLDY    69  33  25 SE20G29   30.08S
PRESIDIO       FAIR      73  43  34 NE20G28   30.03R
SEMINOLE       CLEAR     64  20  18 SE15      30.16S
SNYDER         CLEAR     66  27  23 E9        30.21R
WINK           CLOUDY    73  28  18 SE23G30   30.08R
$$
...OTHER STATIONS IN TEXAS...

CITY           SKY/WX    TMP DP  RH WIND       PRES   REMARKS
ABILENE        CLEAR     62  30  29 E10       30.22S
AMARILLO       CLEAR     58  23  26 SE16      30.21R
AUSTIN         MOCLDY    64  42  44 NE9       30.23R
BROWNSVILLE    FAIR      72  65  78 E8        30.16R
CORPUS CHRISTI PTCLDY    68  53  58 SE7       30.17S
DALLAS FTW     CLEAR     58  35  42 N8        30.24S
DEL RIO        PTCLDY    68  40  35 S6        30.14R
EL PASO        TSTM      76  33  21 E14G26    29.92S
HOUSTON INT    FAIR      67  44  43 N8        30.21R
LUBBOCK        MOCLDY    63  22  20 SE22      30.19S
SAN ANGELO     CLEAR     67  27  22 E13       30.18R
SAN ANTONIO    CLOUDY    69  36  29 NE8       30.20F
WACO           CLEAR     57  36  45 NE6       30.25R
WICHITA FALLS  PTCLDY    51  28  41 E8        30.32S
$$
...OTHER LOCATIONS IN NEW MEXICO...

CITY           SKY/WX    TMP DP  RH WIND       PRES   REMARKS
ALAMOGORDO     CLEAR     73  34  23 SE14      29.95S
ALBUQUERQUE    CLOUDY    67  26  21 SE32G38   29.92F
CANNON AFB     PTCLDY    58  23  26 SE15      30.18R
CLOVIS         PTCLDY    59  20  22 SE14      30.19R
HOLLOMAN AFB   CLEAR     74  33  22 SE23G32   29.95F
ROSWELL        PTCLDY    69  28  21 SE17      30.07F
RUIDOSO        PTCLDY    54  23  30 SE21G29   30.18S
SANTA FE       MOCLDY    56  23  27 SE33G45   30.02F
TRUTH OR CONSE PTCLDY    73  34  23 SE20G33   29.89F
TUCUMCARI      CLOUDY    65  24  21 SE15      30.13S
$$




USA.gov is the U.S. government's official web portal to all federal, state and local government web resources and services.